Weather History for Morgantown, WV

Change the Weather History Date:

Sunday, January 6, 2008

  Actual Average Record
Temperature  
Mean Temperature 52 °F 31 °F  
Max Temperature 59 °F 39 °F 72 °F (1946)
Min Temperature 46 °F 24 °F -4 °F (2014)
Degree Days  
Heating Degree Days 12 34  
Month to date heating degree days 201  
Since 1 July heating degree days 2185  
Cooling Degree Days 0 0  
Month to date cooling degree days 0  
Year to date cooling degree days 0  
Growing Degree Days 2 (Base 50)    
Moisture  
Dew Point 45 °F    
Average Humidity 80    
Maximum Humidity 93    
Minimum Humidity 64    
Precipitation  
Precipitation 0.07 in 0.09 in 1.18 in (1950)
Month to date precipitation 0.54  
Year to date precipitation 0.54  
Sea Level Pressure  
Sea Level Pressure 30.17 in    
Wind  
Wind Speed 5 mph (SSW)    
Max Wind Speed 14 mph    
Max Gust Speed -    
Visibility 8 miles    
Events Rain    
T = Trace of Precipitation, MM = Missing Value Source: NWS Daily Summary

Daily Weather History Graph

Daily Weather History Graph

Search for Another Location

Airport:

Trip Planner

Search our weather history database for the weather conditions in past years. The results will help you decide how hot, cold, wet, or windy it might be!

Date:

Astronomy

Jan. 06, 2008 Rise Set
Actual Time 7:40 AM EST 5:10 PM EST
Civil Twilight 7:10 AM EST 5:40 PM EST
Nautical Twilight 6:37 AM EST 6:13 PM EST
Astronomical Twilight 6:04 AM EST 6:46 PM EST
Moon 6:29 AM EST (1/6) 3:18 PM EST (1/6)
Length of Visible Light 10h 29m
Length of Day
9h 29m
Waning Crescent, 3% of the Moon is Illuminated
Jan 6
Waning Crescent
Jan 8
New
Jan 15
First Quarter
Jan 22
Full
Jan 30
Last Quarter

Hourly Weather History & Observations

Time (EST) Temp. Windchill Dew Point Humidity Pressure Visibility Wind Dir Wind Speed Gust Speed Precip Events Conditions
12:07 AM 46.4 °F 44.3 °F 42.8 °F 87% 30.17 in 10.0 mi SSW 4.6 mph - 0.00 in   Overcast
12:13 AM 46.4 °F 44.3 °F 42.8 °F 87% 30.17 in 9.0 mi SSW 4.6 mph - 0.00 in   Overcast
12:24 AM 46.4 °F 44.3 °F 42.8 °F 87% 30.17 in 10.0 mi South 4.6 mph - 0.00 in   Overcast
12:44 AM 46.4 °F 44.3 °F 42.8 °F 87% 30.16 in 5.0 mi Variable 4.6 mph - 0.00 in   Overcast
12:51 AM 46.4 °F 43.5 °F 42.8 °F 87% 30.16 in 5.0 mi SSW 5.8 mph - 0.00 in   Overcast
12:53 AM 46.9 °F - 43.0 °F 86% 30.18 in 5.0 mi SSW 4.6 mph - 0.00 in   Overcast
1:53 AM 46.9 °F - 44.1 °F 90% 30.19 in 7.0 mi SSW 3.5 mph - 0.03 in Rain Light Rain
2:53 AM 46.9 °F - 44.1 °F 90% 30.19 in 7.0 mi SSW 3.5 mph - 0.01 in Rain Light Rain
3:00 AM 46.4 °F 44.3 °F 44.6 °F 93% 30.18 in 9.0 mi SSW 4.6 mph - 0.00 in Rain Light Rain
3:11 AM 46.4 °F 43.5 °F 44.6 °F 93% 30.18 in 7.0 mi South 5.8 mph - 0.00 in   Overcast
3:53 AM 48.0 °F - 45.0 °F 89% 30.19 in 9.0 mi SSW 5.8 mph - 0.00 in   Overcast
4:01 AM 48.2 °F - 44.6 °F 87% 30.18 in 6.0 mi SSW 5.8 mph - 0.01 in Rain Light Rain
4:53 AM 48.0 °F - 45.0 °F 89% 30.19 in 5.0 mi SSW 4.6 mph - 0.02 in Rain Light Rain
5:53 AM 48.0 °F - 45.0 °F 89% 30.20 in 6.0 mi SSW 4.6 mph - 0.00 in   Overcast
6:53 AM 48.9 °F - 45.0 °F 86% 30.21 in 3.0 mi SSW 9.2 mph - 0.01 in   Overcast
7:53 AM 48.0 °F - 45.0 °F 89% 30.22 in 3.0 mi SSW 3.5 mph - 0.00 in   Overcast
8:53 AM 48.9 °F - 45.0 °F 86% 30.22 in 8.0 mi South 5.8 mph - 0.00 in   Overcast
9:53 AM 50.0 °F - 45.0 °F 83% 30.22 in 10.0 mi Variable 4.6 mph - N/A   Overcast
10:53 AM 52.0 °F - 45.0 °F 77% 30.22 in 10.0 mi South 8.1 mph - N/A   Overcast
11:53 AM 52.0 °F - 46.0 °F 80% 30.20 in 10.0 mi SSW 6.9 mph - N/A   Overcast
12:53 PM 53.1 °F - 46.0 °F 77% 30.17 in 10.0 mi SSW 12.7 mph - N/A   Overcast
1:53 PM 54.0 °F - 46.0 °F 75% 30.16 in 10.0 mi SSW 13.8 mph - N/A   Overcast
2:53 PM 55.0 °F - 46.0 °F 72% 30.14 in 10.0 mi SSW 8.1 mph - N/A   Overcast
3:29 PM 55.4 °F - 46.4 °F 72% 30.13 in 10.0 mi South 5.8 mph - N/A   Overcast
3:53 PM 55.0 °F - 46.0 °F 72% 30.14 in 10.0 mi South 5.8 mph - N/A   Overcast
4:05 PM 55.4 °F - 46.4 °F 72% 30.13 in 10.0 mi South 4.6 mph - N/A   Overcast
4:16 PM 55.4 °F - 46.4 °F 72% 30.13 in 10.0 mi South 5.8 mph - N/A   Overcast
4:53 PM 55.9 °F - 46.9 °F 72% 30.14 in 10.0 mi Variable 4.6 mph - N/A   Overcast
5:53 PM 55.9 °F - 46.9 °F 72% 30.15 in 10.0 mi South 5.8 mph - N/A   Overcast
6:53 PM 57.0 °F - 46.9 °F 69% 30.15 in 10.0 mi South 5.8 mph - N/A   Overcast
7:48 PM 57.2 °F - 46.4 °F 67% 30.15 in 10.0 mi South 6.9 mph - N/A   Overcast
7:53 PM 57.0 °F - 46.9 °F 69% 30.15 in 10.0 mi South 4.6 mph - N/A   Overcast
8:53 PM 57.9 °F - 46.9 °F 67% 30.15 in 10.0 mi South 5.8 mph - N/A   Overcast
9:53 PM 57.9 °F - 46.9 °F 67% 30.15 in 10.0 mi South 5.8 mph - N/A   Overcast
10:53 PM 59.0 °F - 46.9 °F 64% 30.15 in 10.0 mi SSW 8.1 mph - N/A   Overcast
11:53 PM 59.0 °F - 46.9 °F 64% 30.15 in 10.0 mi South 4.6 mph - N/A   Overcast